Regional Weather Roundup
Issued by NWS

Home | Current Version | Previous Version | Text Only | Print | Product List | Glossary Off
Versions: 1 2 3 4 5 6 7 8 9 10 11 12 13 14 15 16 17 18 19 20 21 22 23 24 25 26 27 28 29 30 31 32 33 34 35 36 37 38 39 40 41 42 43 44 45 46 47 48 49 50

000
ASUS43 KMKX 171621
RWRWI

WISCONSIN REGIONAL WEATHER ROUNDUP
NATIONAL WEATHER SERVICE MILWAUKEE/SULLIVAN WI
1100 AM CDT WED SEP 17 2014

NOTE: "FAIR" INDICATES FEW OR NO CLOUDS BELOW 12,000 FEET WITH NO
SIGNIFICANT WEATHER AND/OR OBSTRUCTIONS TO VISIBILITY.

WIZ001-002-006>008-014>016-023>028-171700-
NORTHWEST WISCONSIN

CITY           SKY/WX    TMP DP  RH WIND       PRES   REMARKS
SUPERIOR ARPT  SUNNY     61  50  67 CALM      29.94F
ASHLAND        SUNNY     62  49  62 CALM      29.95F
HAYWARD        SUNNY     63  48  58 CALM      29.96S
SIREN          SUNNY     63  50  61 NW5       29.96R
RICE LAKE      SUNNY     62  50  66 CALM      29.98S
LADYSMITH      PTSUNNY   61  51  70 CALM      29.98S
EAU CLAIRE     PTSUNNY   63  50  62 SW8       29.97S
MENOMONIE      MOSUNNY   61  51  69 CALM      29.98R
NEW RICHMOND   MOSUNNY   65  50  60 SW5       29.96S
OSCEOLA        SUNNY     64  53  66 SW3       29.98S
$$

WIZ003>005-009-010-017-018-171700-
NORTH CENTRAL WISCONSIN

CITY           SKY/WX    TMP DP  RH WIND       PRES   REMARKS
WOODRUFF       SUNNY     62  48  61 NW7       29.96S
RHINELANDER    SUNNY     61  46  57 W9        29.97S
EAGLE RIVER    SUNNY     62  43  50 W8        29.95S
LAND O LAKES   SUNNY     62  45  52 W6        29.96S
PHILLIPS       SUNNY     60  49  65 SW5       29.96S
TOMAHAWK       SUNNY     62  48  59 CALM      29.97S
MEDFORD        SUNNY     60  49  66 W7        29.98R
MERRILL        PTSUNNY   61  50  67 W8        29.97S
$$

WIZ029-030-035-036-043>047-171700-
CENTRAL WISCONSIN

CITY           SKY/WX    TMP DP  RH WIND       PRES   REMARKS
WAUSAU         MOSUNNY   62  49  62 W10       29.96F
MOSINEE        SUNNY     61  52  72 W8        29.99S
MARSHFIELD     MOSUNNY   62  49  62 W9        29.98S
STEVENS POINT  SUNNY     60  46  60 W8        29.99S
WAUPACA        SUNNY     66  47  51 W10       29.99S
WAUTOMA        MOSUNNY   64  49  58 SW8       30.00F
WISC RAPIDS    SUNNY     62  48  60 W8        30.00F
CAMP DOUGLAS   PTSUNNY   63  52  67 SW8       30.00S
$$

WIZ011>013-019>022-031-037>040-048>050-171700-
NORTHEAST WISCONSIN

CITY           SKY/WX    TMP DP  RH WIND       PRES   REMARKS
ANTIGO         SUNNY     62  48  61 W8        29.97S
STURGEON BAY   SUNNY     63  46  55 W12       29.98F
GREEN BAY      SUNNY     64  50  60 W7        29.98F
MANITOWOC      SUNNY     64  48  56 NW7       29.99F
APPLETON       MOSUNNY   61  46  59 W9        29.99F
CLINTONVILLE   SUNNY     63  46  55 W8        29.98S
OSHKOSH        SUNNY     63  48  58 VRB7      29.99F
$$

WIZ032>034-041-042-053>061-171700-
SOUTHWEST WISCONSIN

CITY           SKY/WX    TMP DP  RH WIND       PRES   REMARKS
LA CROSSE      MOSUNNY   61  50  67 S6        30.00S
SPARTA         PTSUNNY   61  49  63 SW3       30.01S
VIROQUA        PTSUNNY   62  49  63 SW7       30.01S
BOSCOBEL       CLOUDY    60  50  69 CALM      30.02S
PRAIRIE DU CHI CLOUDY    60  49  68 S5        30.01S
PLATTEVILLE    PTSUNNY   62  49  61 CALM      30.03S
$$

WIZ056-057-062-063-064-067-068-171700-
SOUTH CENTRAL WISCONSIN

CITY           SKY/WX    TMP DP  RH WIND       PRES   REMARKS
BARABOO/DELLS  PTSUNNY   61  45  56 SW9       30.01F
LONE ROCK      CLOUDY    62  50  64 CALM      30.02S
WATERTOWN      MOSUNNY   63  49  61 SW5       30.01F
MADISON        PTSUNNY   62  46  55 W6        30.02S
MIDDLETON      PTSUNNY   64  46  53 W6        30.02S
MONROE         PTSUNNY   61  46  59 S7        30.02S
JANESVILLE     SUNNY     64  46  52 SW6       30.02S
$$

WIZ051-052-058>065-066-070>072-171700-
SOUTHEAST WISCONSIN

CITY           SKY/WX    TMP DP  RH WIND       PRES   REMARKS
MILWAUKEE      MOSUNNY   64  44  48 W6        30.02F
WAUKESHA       SUNNY     61  45  55 W6        30.03S
MILWAUKEE/TIMM SUNNY     63  45  51 W9        30.03S
RACINE         SUNNY     64  46  52 W5        30.04S
BURLINGTON     SUNNY     63  43  49 W7        30.02S
KENOSHA        SUNNY     64  47  53 W6        30.03S
FOND DU LAC    SUNNY     63  48  58 W8        30.00F
SHEBOYGAN      SUNNY     64  47  53 W8        30.00F
WEST BEND      SUNNY     63  45  51 SW7       30.01S
JUNEAU         PTSUNNY   61  48  62 SW7       30.02F
$$

LSZ147-162-171700-
LAKE SUPERIOR

STATION/POSITION TIME  TEMP    WIND        PRES    WAVE
                       AIR SEA DIR/SP/G            HT/PER
                 (UTC) (F)     (DEG/KT/KT) (MB)    (FT/S)
W MID LAKE BUOY  1550   44 46   60/ 19/ 21 1015.1R   3/ 5
DEVILS ISLAND    1600   48      50/ 18/ 19 1015.5R
PORT WING        1500   56     190/  4/  7 1014.2F
SAXON HARBOR     1500   60        CALM     1014.2F
$$

LMZ867-665-643>646-171700-
LAKE MICHIGAN

STATION/POSITION TIME  TEMP    WIND        PRES    WAVE
                       AIR SEA DIR/SP/G            HT/PER
                 (UTC) (F)     (DEG/KT/KT) (MB)    (FT/S)
N MID LAKE BUOY  1550   57 58  250/ 10/ 12 1014.8F   2/ 3
NORTHPORT PIER   1500   61     280/  7/ 13 1014.9F
KEWAUNEE LAKESHO 1600   63     280/  6/  9 1014.3F
SHEBOYGAN LAKESH 1600   62 51  280/  5/  6 1016.0F
PORT WASHINGTON  1500   63     250/  5/ 11 1016.9F
ATWATER BUOY     1600   62     260/  2/  2 1017.5S
MILWAUKEE LAKESH 1600   62     260/  8/ 10   N/A
S MID LAKE BUOY  1550   61 65  270/  6/  8 1016.9S   1/ 4
KENOSHA   LAKESH 1600   62     320/  4/  6 1016.3F
$$

TC  - TEMPERATURE IN CELSIUS
VSB - VISIBILITY IN STATUTE MILES
WCI - WIND CHILL INDEX
HX  - HEAT INDEX



USA.gov is the U.S. government's official web portal to all federal, state and local government web resources and services.